Miscellaneous Local Product
Issued by NWS Hastings, NE

Home | Current Version | Previous Version | Graphics & Text | Print | Product List | Glossary On
Versions: 1 2 3 4 5 6 7 8 9 10 11 12 13 14 15 16 17 18 19 20 21 22 23 24 25 26 27 28 29 30 31 32 33 34 35 36 37 38 39 40 41 42 43 44 45 46 47 48 49 50
000
AXUS43 KGID 220910
MISGRI

GID CWA HOURLY WEATHER ROUNDUP
NATIONAL WEATHER SERVICE HASTINGS NE
400 AM CDT MON SEP 22 2014

NOTE: "FAIR" INDICATES FEW OR NO CLOUDS BELOW 12,000 FEET WITH NO
SIGNIFICANT WEATHER AND/OR OBSTRUCTIONS TO VISIBILITY.

...SOUTH CENTRAL NEBRASKA...

CITY           SKY/WX    TMP DP  RH WIND       PRES   REMARKS
GRAND ISLAND   CLEAR     47  43  86 CALM      30.31S
HASTINGS       CLEAR     48  42  80 CALM      30.30S
KEARNEY        CLEAR     48  43  81 CALM      30.30F
ORD            CLEAR     41  38  89 CALM      30.29F
YORK           CLEAR     45  45 100 W6        30.30S
AURORA         CLEAR     45  43  93 SW3       30.30S
LEXINGTON      CLEAR     46  44  91 CALM      30.29F
HOLDREGE       CLEAR     46  41  83 CALM      30.30S
HEBRON         CLEAR     44  42  92 CALM      30.30S

...NEBRASKA PANHANDLE...

CITY           SKY/WX    TMP DP  RH WIND       PRES   REMARKS
CHADRON        PTCLDY    63  41  44 S21G29    30.17F
ALLIANCE       PTCLDY    53  41  63 SE12      30.23F
SCOTTSBLUFF    PTCLDY    57  44  62 SE12      30.21F
SIDNEY         PTCLDY    60  40  47 S12       30.27F

...WESTERN AND NORTH CENTRAL NEBRASKA...

CITY           SKY/WX    TMP DP  RH WIND       PRES   REMARKS
VALENTINE      PTCLDY    52  41  66 S6        30.26F
AINSWORTH      CLEAR     45  40  85 S7        30.28F
ONEILL         CLEAR     47  44  90 S6        30.29F
BROKEN BOW     CLEAR     42  39  89 CALM      30.29F
IMPERIAL       CLOUDY    58  41  53 S9        30.28F
NORTH PLATTE   CLOUDY    50  44  80 E7        30.29F
MCCOOK         MOCLDY    54  44  69 E5        30.29F

...EASTERN NEBRASKA...

CITY           SKY/WX    TMP DP  RH WIND       PRES   REMARKS
NORFOLK        CLEAR     41  40  96 CALM      30.29S
SO SIOUX CITY  FOG       45  44  97 S3        30.29S VSB 1
TEKAMAH        CLEAR     45  43  93 CALM      30.30R
COLUMBUS       CLEAR     43  39  87 CALM      30.31R
ALBION         CLEAR     43  40  89 CALM      30.30S
OMAHA EPPLEY   CLEAR     50  48  93 CALM      30.30S
OFFUTT AFB     CLEAR     46  46 100 CALM      30.29S
MILLARD        CLEAR     50  49  96 CALM      30.30R
LINCOLN        CLEAR     50  46  86 W3        30.30S
NEBRASKA CITY    N/A     53  43  69 CALM      30.29S
BEATRICE       CLEAR     44  43  96 CALM      30.29S
FALLS CITY     CLEAR     49  47  93 CALM      30.28S

...NORTHERN KANSAS...

CITY           SKY/WX    TMP DP  RH WIND       PRES   REMARKS
GOODLAND       PTCLDY    52  43  71 S7        30.31S
HILL CITY      CLOUDY    55  46  71 CALM      30.30S
NORTON         PTSUNNY   54  39  58 SE3       30.29
SMITH CENTER     N/A     46  43  87 E7        30.30S HAZE
BELOIT         CLEAR     45  45 100 CALM      30.29S
HAYS           CLOUDY    55  43  62 E6        30.30S
RUSSELL        CLEAR     49  45  86 E3        30.29S
CONCORDIA      CLEAR     51  46  83 CALM      30.29S
SALINA         CLEAR     54  47  77 CALM      30.29S
TOPEKA         CLEAR     51  48  89 CALM      30.29R



USA.gov is the U.S. government's official web portal to all federal, state and local government web resources and services.